FW1583 Weather Reports


time (UTC)temp
F
wind
direction
speed
knots
gust
knots
rain 1hr
in
rain 24hr
in
rain mn
in
humidity
%
barometer
mb
20260508060429 48 270 0.0 0.0 0.00 0.01 0.00 90 1014.9
20260508055430 48 270 0.0 0.0 0.00 0.01 0.00 90 1015.0
20260508054430 48 270 0.0 0.0 0.00 0.02 0.00 91 1015.0
20260508052627 48 270 0.0 0.0 0.00 0.02 0.00 90 1014.7
20260508051644 49 270 0.0 0.0 0.00 0.02 0.00 90 1014.7
20260508050630 49 247 0.0 0.0 0.00 0.02 0.00 90 1014.7
20260508050528 49 247 0.0 0.0 0.00 0.02 0.00 90 1014.7
20260508045628 49 180 0.0 0.9 0.00 0.02 0.00 90 1014.6
20260508044647 49 254 0.0 0.9 0.00 0.02 0.00 90 1014.4
20260508043628 49 247 0.0 0.0 0.00 0.03 0.00 89 1014.3
20260508042628 49 157 0.0 0.0 0.00 0.04 0.00 88 1014.3
20260508041628 49 270 0.0 0.0 0.00 0.04 0.00 88 1014.3
20260508040628 49 270 0.0 0.0 0.00 0.04 0.00 87 1014.2
20260508035656 49 247 0.0 0.0 0.00 0.04 0.04 86 1014.0
20260508032737 49 292 0.0 0.9 0.00 0.04 0.04 83 1014.0
20260508031836 50 292 0.0 0.0 0.00 0.04 0.04 83 1013.9
20260508030839 50 328 0.0 0.0 0.00 0.04 0.04 82 1013.9
20260508025840 50 202 0.0 0.0 0.00 0.04 0.04 81 1013.9
20260508024937 50 157 0.0 0.0 0.00 0.04 0.04 80 1013.9
20260508023036 51 112 0.0 0.0 0.00 0.04 0.04 79 1013.9
20260508022053 51 112 0.0 0.0 0.00 0.04 0.04 79 1013.9
20260508014137 51 112 0.0 0.0 0.00 0.04 0.04 76 1013.7
20260508012154 52 112 0.0 0.0 0.00 0.04 0.04 74 1013.7
20260508011139 52 138 0.0 0.9 0.00 0.04 0.04 74 1013.5
20260508010238 52 202 0.0 0.0 0.00 0.04 0.04 73 1013.3
20260508005239 53 202 0.0 0.0 0.00 0.04 0.04 71 1013.1
20260508004236 53 247 0.0 0.0 0.00 0.04 0.04 71 1013.0
20260508003238 54 202 0.0 0.0 0.00 0.04 0.04 69 1013.0
20260508002240 54 135 0.0 0.0 0.00 0.04 0.04 68 1012.9
20260508001236 54 266 0.0 0.9 0.00 0.04 0.04 67 1012.8
20260508000253 55 157 0.0 0.0 0.00 0.04 0.04 66 1012.8
20260507235339 55 191 0.0 0.0 0.00 0.04 0.04 65 1012.6
20260507234437 56 180 0.0 0.0 0.00 0.04 0.04 64 1012.6
20260507233438 56 76 0.0 0.0 0.00 0.04 0.04 63 1012.4
20260507232437 57 147 0.0 0.9 0.00 0.04 0.04 62 1012.2
20260507230536 58 94 0.0 0.9 0.00 0.04 0.04 59 1012.0
20260507224638 61 175 0.0 1.7 0.00 0.04 0.04 55 1011.7
20260507223736 63 211 0.0 0.9 0.00 0.04 0.04 52 1011.6
20260507222738 65 210 0.9 2.6 0.00 0.04 0.04 51 1011.5
20260507221837 65 270 0.0 0.0 0.00 0.04 0.04 49 1011.4
20260507220838 66 163 0.0 1.7 0.00 0.04 0.04 48 1011.3
20260507215936 66 128 0.0 1.7 0.00 0.04 0.04 47 1011.4
20260507213939 67 170 0.9 2.6 0.00 0.04 0.04 46 1011.4
20260507213838 67 155 0.0 2.6 0.00 0.04 0.04 46 1011.4
20260507212936 68 134 0.0 0.9 0.00 0.04 0.04 46 1011.5
20260507211938 68 117 0.0 0.9 0.00 0.04 0.04 47 1011.5
20260507210939 68 247 0.0 0.0 0.00 0.04 0.04 48 1011.5
20260507205937 68 205 0.0 0.9 0.00 0.04 0.04 48 1011.4
20260507204939 67 187 0.0 0.9 0.00 0.04 0.04 49 1011.5
20260507204038 68 224 1.7 4.3 0.00 0.04 0.04 48 1011.5
20260507202037 69 166 0.0 1.7 0.00 0.04 0.04 47 1011.4
20260507201037 68 172 0.0 0.9 0.00 0.04 0.04 47 1011.4
20260507200136 68 21 0.0 0.0 0.00 0.04 0.04 48 1011.5
20260507195236 67 198 0.0 0.9 0.00 0.04 0.04 50 1011.4
20260507195138 67 139 0.0 0.9 0.00 0.04 0.04 50 1011.5
20260507195038 67 169 0.0 0.0 0.00 0.04 0.04 50 1011.5
20260507194040 66 173 0.9 2.6 0.00 0.04 0.04 51 1011.5
20260507193038 65 129 0.0 0.9 0.00 0.04 0.04 52 1011.8
20260507192039 65 196 0.0 0.9 0.00 0.04 0.04 52 1012.0
20260507191038 65 197 0.9 3.5 0.00 0.04 0.04 51 1012.1
20260507190137 65 43 0.0 1.7 0.00 0.04 0.04 49 1012.3
20260507185138 65 204 0.0 1.7 0.00 0.04 0.04 50 1012.4
20260507184138 64 356 0.0 0.0 0.00 0.04 0.04 52 1012.3
20260507183138 63 135 0.0 0.0 0.00 0.04 0.04 52 1012.6
20260507182236 63 135 0.0 0.9 0.00 0.04 0.04 52 1012.8
20260507180337 62 207 0.0 0.0 0.00 0.04 0.04 49 1013.0
20260507175338 62 202 0.0 0.0 0.00 0.04 0.04 50 1013.1
20260507174338 61 212 0.9 1.7 0.00 0.04 0.04 53 1013.2
20260507173336 59 360 0.0 1.7 0.00 0.05 0.04 53 1013.4
20260507172339 59 22 0.0 0.0 0.00 0.05 0.04 56 1013.9
20260507171338 58 90 0.0 0.0 0.00 0.05 0.04 55 1014.0
20260507170338 59 360 0.0 0.0 0.00 0.05 0.04 54 1014.0
20260507165436 59 225 0.0 0.0 0.00 0.05 0.04 52 1014.6
20260507163438 59 320 0.0 0.9 0.00 0.05 0.04 54 1014.4
20260507162440 59 337 0.0 0.9 0.00 0.05 0.04 57 1014.5
20260507162339 59 159 0.0 0.0 0.00 0.05 0.04 57 1014.4
20260507161338 58 315 0.0 0.0 0.00 0.05 0.04 59 1014.6
20260507160337 58 22 0.0 0.0 0.00 0.05 0.04 60 1014.7
20260507154438 57 360 0.0 0.0 0.00 0.05 0.04 61 1014.8
20260507153437 57 360 0.0 0.0 0.00 0.05 0.04 63 1015.0
20260507152536 56 360 0.0 0.0 0.00 0.05 0.04 64 1015.1
20260507151538 55 22 0.0 0.0 0.00 0.05 0.04 65 1015.0
20260507150539 55 78 0.0 1.7 0.00 0.07 0.04 69 1015.1
20260507144539 54 135 0.0 0.0 0.00 0.08 0.04 72 1015.3
20260507143540 53 180 0.0 0.0 0.00 0.09 0.04 70 1015.4
20260507141539 53 77 0.9 4.3 0.00 0.11 0.04 71 1015.5
20260507140539 53 292 0.0 0.0 0.00 0.12 0.04 72 1015.5
20260507135637 53 292 0.0 0.0 0.00 0.14 0.04 71 1015.6
20260507134638 53 292 0.0 0.0 0.00 0.16 0.04 72 1015.7
20260507133736 53 292 0.0 0.0 0.00 0.18 0.04 74 1015.7
20260507132738 53 292 0.0 0.0 0.00 0.20 0.04 77 1015.8
20260507130738 53 22 0.0 0.0 0.00 0.24 0.04 79 1015.6
20260507125739 53 22 0.0 0.0 0.00 0.24 0.04 79 1015.5
20260507124739 52 22 0.0 0.0 0.00 0.25 0.04 79 1015.5
20260507122742 53 67 0.0 0.0 0.00 0.25 0.04 86 1015.6
20260507121740 54 292 0.0 0.0 0.00 0.26 0.04 91 1015.4
20260507121637 54 292 0.0 0.0 0.00 0.26 0.04 91 1015.4
20260507120638 54 270 0.0 0.0 0.00 0.27 0.04 92 1015.3
20260507115638 54 22 0.0 0.0 0.00 0.27 0.04 94 1015.3
20260507114638 54 112 0.0 0.0 0.00 0.27 0.04 94 1015.1
20260507113639 53 112 0.0 0.0 0.00 0.27 0.04 94 1015.0
20260507112637 53 22 0.0 0.9 0.00 0.27 0.04 94 1015.0
20260507111639 53 360 0.0 0.0 0.00 0.27 0.04 94 1015.1
20260507110639 53 360 0.0 0.0 0.00 0.27 0.04 94 1014.8
20260507110537 53 360 0.0 0.0 0.00 0.27 0.04 94 1014.7
20260507105540 53 360 0.0 0.0 0.00 0.27 0.04 94 1015.0
20260507104538 53 360 0.0 0.0 0.00 0.27 0.04 94 1014.7
20260507094638 53 360 0.0 0.0 0.00 0.27 0.04 94 1014.4
20260507093737 53 360 0.0 0.0 0.00 0.27 0.04 94 1014.4
20260507092736 53 360 0.0 0.0 0.00 0.27 0.04 94 1014.3
20260507091738 53 360 0.0 0.0 0.00 0.27 0.04 94 1014.1
20260507085839 54 360 0.0 0.0 0.00 0.27 0.04 94 1014.4
20260507084838 54 360 0.0 0.0 0.01 0.27 0.04 94 1014.2
20260507083937 54 360 0.0 0.0 0.01 0.27 0.04 94 1013.9
20260507082936 54 360 0.0 0.0 0.01 0.27 0.04 94 1014.2
20260507081936 54 360 0.0 0.0 0.01 0.27 0.04 94 1014.0
20260507080936 54 360 0.0 0.0 0.01 0.27 0.04 94 1013.8
20260507075936 54 360 0.0 0.0 0.01 0.27 0.04 94 1013.6
20260507074937 54 360 0.0 0.0 0.00 0.26 0.03 94 1013.5
20260507072937 55 292 0.0 0.0 0.00 0.26 0.03 93 1013.2
20260507071036 55 292 0.0 0.0 0.00 0.26 0.03 94 1013.2
20260507070037 55 292 0.0 0.0 0.00 0.26 0.03 94 1013.3
20260507065055 55 292 0.0 0.0 0.00 0.26 0.03 94 1013.1
20260507063038 55 270 0.0 0.0 0.01 0.26 0.03 93 1013.5
20260507062137 55 348 0.0 0.0 0.01 0.26 0.03 93 1013.4
20260507061139 55 22 0.0 0.0 0.01 0.26 0.03 92 1013.3